Wind_Speed
41 39 40 41 42 44 47 51 49 53 55 58 64 67 74 80 81 82 84 89 90 91 88 88 82 79 76 73 71 70 69 66 59 58 54 54 51 46 45 41 42 37 34
43 43 39 42 45 48 49 54 55 58 59 61 62 67 70 74 79 78 83 86 94 94 95 94 89 86 82 77 75 72 71 68 67 62 63 55 51 43 42 45 48 42 38
47 47 48 49 47 51 53 56 60 61 65 66 63 66 68 67 69 75 78 80 86 94 95 100 100 94 89 84 79 78 75 73 71 68 64 59 54 49 45 41 41 40 35
45 48 49 54 56 57 57 60 60 61 69 66 64 63 65 64 63 66 72 77 81 89 94 98 100 102 98 91 86 82 80 76 73 70 65 63 55 49 45 41 36 37 35
44 41 49 54 60 57 59 60 62 69 68 65 64 61 60 62 63 62 64 71 77 82 92 96 97 102 104 99 94 88 84 81 76 73 70 67 65 58 54 51 45 41 37
42 46 51 55 56 58 57 62 67 73 67 63 59 56 57 57 63 64 65 67 73 78 83 91 98 102 103 100 98 94 89 85 79 76 72 69 68 62 59 56 54 46 39
46 50 55 64 61 60 63 68 74 72 63 57 53 53 52 53 58 64 67 68 72 77 80 85 92 99 104 102 100 95 92 87 85 77 74 72 67 65 62 56 52 52 42
50 57 60 67 65 64 69 73 75 71 61 54 53 52 54 54 55 59 65 69 72 76 80 84 89 93 99 103 103 100 92 89 85 83 78 71 73 66 62 59 51 50 56
57 64 64 69 64 68 74 78 77 66 56 55 55 54 52 52 51 52 60 68 72 75 79 84 87 91 94 98 100 99 96 90 87 81 79 75 74 71 65 62 63 59 57
62 63 68 69 71 77 76 79 70 58 58 55 53 51 49 49 50 50 55 63 67 75 79 84 89 87 90 94 97 98 95 94 91 85 79 74 74 74 71 66 63 65 58
61 65 70 71 78 76 78 71 60 58 51 45 43 42 43 42 44 45 51 56 63 67 77 81 86 90 89 89 94 96 96 95 92 88 84 77 61 64 73 68 67 74 68
65 68 68 77 77 77 72 60 59 51 42 36 34 34 36 37 39 41 42 47 56 61 67 77 81 86 90 91 90 95 96 96 95 90 86 82 81 74 72 69 70 77 73
65 67 72 77 80 71 62 59 52 48 45 36 29 29 30 32 34 36 38 41 45 52 57 66 75 79 84 90 92 92 96 97 97 90 88 84 77 71 71 71 71 71 73
67 71 77 78 72 67 58 54 49 49 45 36 27 25 26 28 30 32 33 36 40 45 51 57 64 71 78 84 90 95 96 96 99 92 86 83 78 59 61 68 69 70 68
72 75 80 75 68 57 55 49 47 43 38 33 25 20 22 24 25 26 29 31 35 39 43 51 59 61 69 79 85 88 96 98 99 94 88 80 83 81 54 69 64 63 66
74 77 71 67 58 52 47 46 40 35 30 26 21 16 14 17 19 21 25 30 32 35 38 42 49 55 58 70 80 84 90 98 99 93 88 80 75 72 67 63 67 68 65
76 72 64 60 48 48 43 37 33 31 26 22 17 13 11 10 12 17 21 25 28 30 35 38 44 49 55 62 74 83 86 94 98 90 90 81 76 72 66 52 61 61 62
70 63 58 47 45 42 39 27 29 30 27 23 16 10 8 8 10 13 18 21 25 28 32 37 40 44 50 58 67 78 83 90 94 95 87 85 80 77 76 74 55 45 49
59 56 45 39 39 36 29 21 23 26 26 29 21 12 6 4 5 10 14 17 23 27 30 33 36 40 45 55 64 73 81 86 86 93 91 85 79 73 54 62 57 65 56
49 43 36 36 32 33 22 15 16 20 26 31 24 17 10 4 2 4 9 13 19 25 29 31 34 38 45 52 61 68 76 83 82 85 91 86 81 78 64 63 66 64 51
36 30 33 32 28 28 19 16 14 13 22 26 27 21 17 10 6 4 5 10 15 21 25 30 35 40 45 50 55 66 71 79 85 78 86 87 87 83 73 75 69 71 68
26 28 31 25 24 21 15 19 18 15 17 19 24 27 21 16 12 8 6 9 13 19 23 27 32 36 42 47 54 62 71 74 84 75 78 83 86 86 80 77 78 72 67
23 28 26 20 21 17 12 19 21 17 16 12 18 23 18 21 19 13 9 9 11 16 21 24 32 37 42 48 51 59 67 63 79 76 74 68 80 82 80 80 72 65 60
23 25 23 17 15 11 8 12 15 13 19 14 10 16 18 20 21 20 16 13 14 16 21 27 31 37 41 45 47 57 64 66 72 75 75 66 71 78 85 76 72 61 62
23 22 19 15 13 9 5 8 15 13 13 15 13 15 15 16 18 19 19 19 16 20 22 27 31 38 43 47 49 54 58 59 67 65 80 72 67 76 83 77 74 70 66
22 20 15 12 9 8 5 9 14 17 13 14 15 15 14 9 12 10 21 18 19 20 23 27 32 39 43 45 47 57 61 60 58 62 68 55 62 56 61 71 67 63 67
Wind_Direction
291 292 287 285 283 277 276 276 280 286 281 277 268 263 262 258 255 252 247 240 237 230 227 222 223 224 222 222 227 229 227 228 231 233 239 243 246 249 252 254 257 263 261
295 288 287 293 284 279 279 280 282 286 287 284 275 264 262 259 257 252 249 244 238 234 230 224 223 223 223 222 224 228 231 228 231 233 236 239 240 242 248 250 253 257 259
300 288 285 292 293 290 288 290 288 288 295 289 282 271 265 260 256 250 245 243 238 238 234 228 225 224 223 221 223 226 230 232 232 232 235 235 239 241 240 243 253 252 253
295 284 287 288 293 294 287 291 289 290 299 292 284 280 274 266 258 250 244 242 238 232 232 232 229 224 224 224 223 225 228 230 234 234 234 233 234 236 240 238 248 243 249
295 291 293 297 295 293 290 291 293 300 300 294 286 278 270 265 260 252 243 239 237 232 228 226 229 229 226 225 224 224 226 229 231 234 235 236 234 235 238 239 243 244 249
293 295 300 304 297 297 299 299 304 305 300 290 283 275 267 259 256 251 244 237 233 232 228 226 223 226 227 227 226 223 224 227 230 232 235 235 235 233 235 240 251 247 244
297 300 298 307 307 303 305 306 308 306 299 289 282 276 270 261 253 248 243 237 231 230 229 226 224 222 221 226 227 226 224 226 227 230 232 235 236 235 236 236 248 241 234
301 301 302 306 309 305 307 309 313 308 298 291 285 280 275 266 255 247 241 238 232 229 228 225 222 222 221 218 223 226 224 224 224 226 229 233 236 235 237 234 234 242 245
300 300 300 305 310 309 312 314 311 304 299 292 285 279 273 265 256 246 241 236 232 229 226 224 223 220 221 217 216 219 222 222 223 223 225 229 233 234 235 236 232 239 236
302 302 304 309 313 312 314 313 310 306 301 295 287 280 271 262 255 246 240 236 230 228 226 223 222 219 218 216 215 213 216 218 220 222 223 225 233 233 232 235 234 230 230
302 304 310 314 312 313 315 314 313 308 302 291 281 274 268 261 254 249 242 236 231 226 227 222 222 220 216 216 216 213 212 213 216 216 218 217 222 229 230 232 235 233 233
303 308 311 309 313 317 317 318 317 314 305 295 284 274 267 262 257 251 243 238 234 227 226 225 221 220 220 216 215 213 213 212 213 214 215 217 215 224 232 232 233 239 239
305 310 309 313 316 319 320 322 321 323 321 314 298 286 274 265 259 253 244 235 232 230 225 224 222 220 218 217 214 211 211 211 213 212 214 216 220 224 228 230 232 236 238
308 311 312 315 319 321 323 325 327 326 318 317 306 292 280 269 258 251 243 235 229 225 222 220 219 219 217 216 215 211 210 210 211 212 214 214 217 216 220 222 227 237 240
308 309 312 315 319 323 327 329 331 326 321 319 311 294 277 267 255 247 238 234 228 224 221 218 216 215 215 213 214 212 209 209 208 211 212 211 214 217 217 225 228 236 240
306 309 312 315 320 323 331 332 331 326 328 324 314 298 276 261 252 237 230 228 224 220 217 216 214 210 209 211 211 210 208 208 208 209 210 212 214 220 227 230 229 234 239
305 309 312 315 322 326 335 335 334 341 346 341 325 312 290 267 246 230 221 219 219 215 213 210 211 208 205 205 208 208 206 206 208 206 209 210 212 213 209 221 226 235 244
306 308 312 318 324 330 336 336 346 359 3 358 348 323 307 286 254 226 209 207 209 209 206 205 204 204 203 202 204 206 202 204 205 206 206 210 207 216 221 223 223 230 235
306 308 315 322 325 332 336 336 355 5 12 11 12 13 347 309 240 205 195 197 200 199 203 203 200 199 198 200 201 202 199 200 202 206 206 208 213 213 210 223 223 228 224
306 311 320 326 329 335 339 359 1 8 8 15 17 28 35 33 48 189 185 189 191 193 191 194 195 196 195 197 200 196 196 197 196 202 205 206 208 209 208 207 212 212 221
309 321 323 331 330 338 340 7 4 12 9 11 18 30 38 50 73 102 166 181 185 189 191 191 189 193 194 197 195 192 191 195 196 198 202 202 206 210 208 207 215 221 229
319 324 324 335 332 340 353 13 25 15 4 358 17 32 40 54 61 79 124 166 180 182 187 191 190 190 192 192 191 188 187 190 195 193 194 197 206 210 206 209 220 231 236
326 321 328 340 338 341 2 10 14 23 27 16 8 45 42 39 51 62 100 137 158 174 174 183 187 186 189 188 188 184 182 185 193 191 186 192 205 205 211 221 221 222 225
324 321 333 347 335 325 14 11 21 10 26 35 19 50 49 47 58 66 84 110 140 152 166 172 181 181 182 183 178 182 179 183 186 188 178 189 201 209 208 210 217 216 226
321 326 335 358 328 288 11 36 26 54 36 36 58 69 60 58 73 71 69 84 120 148 160 166 170 173 171 172 172 176 177 176 176 179 184 192 198 207 214 213 218 223 235
322 330 339 355 337 245 94 69 31 47 50 54 71 58 54 57 57 65 68 79 96 126 147 157 159 167 163 163 169 165 157 160 173 180 188 194 197 207 212 217 222 224 227
Height
10873 10870 10867 10863 10861 10858 10856 10853 10850 10848 10844 10842 10838 10834 10831 10832 10834 10841 10848 10854 10861 10868 10875 10883 10890 10897 10906 10915 10921 10927 10932 10938 10943 10949 10952 10957 10963 10967 10969 10971 10971 10973 10974
10864 10861 10856 10852 10849 10846 10843 10840 10834 10830 10825 10820 10817 10815 10812 10812 10814 10819 10824 10832 10842 10849 10857 10867 10874 10882 10892 10902 10911 10917 10922 10929 10934 10941 10947 10951 10956 10962 10964 10965 10966 10968 10970
10853 10850 10846 10841 10837 10832 10828 10822 10817 10811 10804 10798 10795 10792 10791 10792 10794 10798 10802 10808 10816 10829 10838 10846 10856 10866 10876 10888 10898 10906 10911 10917 10924 10932 10938 10944 10950 10956 10958 10960 10961 10963 10966
10841 10839 10834 10829 10825 10821 10814 10808 10802 10796 10788 10780 10775 10772 10769 10770 10772 10775 10780 10785 10793 10803 10816 10826 10835 10848 10859 10873 10885 10894 10900 10907 10913 10921 10929 10936 10943 10948 10951 10955 10955 10958 10961
10831 10828 10824 10819 10812 10805 10800 10793 10788 10778 10771 10764 10757 10753 10751 10749 10749 10754 10759 10765 10772 10781 10791 10802 10815 10829 10842 10855 10869 10881 10890 10895 10903 10912 10920 10926 10932 10939 10945 10948 10949 10953 10955
10820 10817 10812 10805 10798 10792 10784 10776 10768 10761 10752 10746 10740 10735 10733 10733 10731 10733 10739 10746 10752 10760 10771 10780 10791 10805 10822 10838 10850 10864 10876 10885 10894 10904 10911 10917 10922 10930 10936 10943 10945 10948 10950
10809 10804 10798 10791 10783 10777 10769 10761 10752 10741 10731 10725 10720 10715 10713 10713 10714 10714 10719 10726 10732 10739 10750 10762 10771 10783 10800 10819 10833 10849 10863 10873 10883 10894 10902 10907 10914 10921 10928 10935 10938 10940 10944
10798 10792 10785 10779 10770 10762 10753 10743 10730 10721 10711 10704 10699 10695 10692 10692 10694 10695 10699 10705 10714 10722 10731 10742 10752 10765 10780 10798 10816 10834 10849 10860 10872 10881 10888 10899 10903 10913 10921 10926 10930 10934 10936
10788 10781 10774 10767 10757 10747 10736 10725 10714 10703 10694 10686 10680 10676 10673 10671 10673 10676 10679 10685 10694 10703 10712 10723 10733 10748 10763 10780 10798 10817 10832 10845 10858 10870 10878 10887 10895 10903 10913 10919 10924 10927 10928
10778 10770 10763 10753 10742 10732 10720 10709 10698 10686 10675 10667 10660 10655 10653 10652 10653 10656 10660 10665 10675 10684 10694 10705 10716 10731 10747 10763 10780 10799 10816 10830 10843 10860 10871 10878 10883 10892 10901 10908 10916 10919 10922
10767 10759 10749 10739 10729 10718 10707 10694 10681 10669 10659 10652 10646 10641 10637 10636 10636 10639 10643 10648 10656 10666 10675 10688 10700 10715 10731 10750 10766 10784 10802 10816 10830 10846 10860 10869 10879 10876 10894 10902 10906 10906 10915
10757 10748 10737 10728 10717 10706 10692 10679 10666 10654 10645 10638 10632 10627 10624 10623 10622 10624 10628 10634 10640 10650 10661 10671 10684 10698 10716 10734 10751 10770 10786 10803 10817 10834 10847 10859 10865 10870 10885 10893 10897 10895 10905
10746 10738 10728 10716 10704 10692 10679 10667 10653 10642 10631 10625 10620 10615 10613 10612 10611 10613 10616 10621 10627 10636 10646 10656 10668 10682 10701 10718 10735 10755 10771 10790 10805 10823 10837 10849 10860 10866 10878 10881 10887 10887 10894
10735 10727 10717 10705 10694 10681 10668 10656 10645 10633 10623 10615 10610 10605 10603 10603 10602 10603 10606 10611 10617 10624 10633 10644 10655 10669 10685 10702 10719 10737 10757 10775 10793 10813 10827 10843 10852 10863 10869 10873 10879 10882 10887
10725 10716 10706 10696 10684 10673 10661 10648 10638 10627 10616 10607 10602 10599 10597 10595 10596 10596 10599 10603 10608 10615 10624 10633 10643 10657 10671 10688 10705 10725 10743 10762 10783 10801 10819 10834 10843 10853 10858 10866 10873 10877 10880
10716 10708 10697 10687 10676 10666 10653 10643 10633 10623 10612 10603 10597 10593 10591 10589 10589 10590 10593 10596 10602 10608 10617 10626 10635 10646 10660 10675 10692 10712 10731 10753 10773 10792 10813 10824 10838 10847 10856 10863 10867 10873 10874
10707 10699 10690 10679 10669 10658 10649 10639 10630 10620 10610 10601 10594 10590 10587 10585 10585 10586 10588 10592 10597 10603 10611 10619 10628 10639 10650 10664 10681 10698 10720 10743 10763 10784 10803 10818 10831 10840 10847 10855 10863 10869 10871
10697 10689 10682 10670 10663 10652 10645 10637 10629 10619 10610 10602 10594 10589 10586 10584 10582 10584 10585 10589 10594 10599 10606 10613 10622 10633 10644 10657 10671 10687 10712 10732 10754 10775 10795 10811 10821 10832 10841 10849 10861 10861 10864
10688 10681 10673 10665 10657 10648 10642 10636 10628 10620 10612 10604 10596 10589 10586 10585 10584 10583 10584 10588 10591 10596 10603 10610 10620 10630 10641 10651 10663 10680 10704 10724 10745 10765 10785 10802 10815 10828 10836 10845 10852 10853 10855
10679 10673 10665 10661 10652 10646 10640 10635 10628 10621 10615 10608 10601 10594 10589 10587 10586 10585 10585 10587 10591 10596 10601 10608 10618 10628 10637 10648 10660 10677 10695 10716 10735 10753 10774 10795 10807 10819 10829 10839 10840 10843 10849
10672 10666 10661 10656 10649 10644 10640 10635 10628 10623 10618 10612 10606 10599 10594 10590 10588 10588 10587 10588 10591 10596 10602 10608 10616 10624 10634 10645 10658 10673 10691 10709 10727 10745 10767 10787 10796 10812 10818 10823 10825 10833 10837
10666 10661 10657 10652 10647 10643 10640 10636 10629 10624 10620 10618 10614 10606 10599 10594 10591 10590 10589 10591 10593 10596 10601 10608 10616 10624 10633 10644 10655 10671 10688 10704 10721 10742 10761 10779 10789 10801 10812 10814 10820 10830 10834
10661 10657 10653 10648 10645 10643 10641 10637 10631 10625 10623 10622 10618 10614 10606 10600 10596 10594 10593 10593 10595 10598 10602 10609 10615 10623 10632 10642 10658 10671 10686 10703 10721 10741 10760 10778 10785 10796 10803 10810 10818 10824 10826
10657 10654 10650 10646 10644 10643 10642 10639 10635 10628 10626 10625 10622 10618 10613 10607 10602 10599 10597 10597 10597 10600 10604 10608 10615 10623 10634 10646 10660 10672 10683 10696 10719 10737 10756 10769 10778 10789 10792 10802 10809 10814 10819
10655 10652 10647 10645 10644 10642 10642 10640 10636 10632 10631 10629 10625 10622 10618 10614 10611 10607 10603 10600 10600 10602 10606 10610 10617 10627 10636 10646 10657 10670 10688 10703 10718 10737 10754 10764 10772 10777 10787 10795 10803 10813 10816
10652 10650 10645 10644 10643 10642 10642 10642 10640 10636 10635 10633 10630 10629 10623 10620 10617 10615 10612 10608 10605 10607 10610 10616 10622 10630 10639 10652 10661 10675 10692 10706 10721 10736 10752 10761 10773 10781 10785 10794 10800 10805 10807